Coeur d'Alene, ID

2:42 AM PDT on May 23, 2018 (GMT -0700)
Coeur D'Alene

Weather History for KCOE - October, 2012

Change the Weather History Date:

Thursday, October 18, 2012

  Actual Average Record
Temperature  
Mean Temperature 45 °F -  
Max Temperature 60 °F 53 °F 73 °F (2003)
Min Temperature 30 °F 34 °F 26 °F (2002)
Degree Days  
Heating Degree Days 20    
Moisture  
Dew Point 31 °F    
Average Humidity 64    
Maximum Humidity 93    
Minimum Humidity 11    
Precipitation  
Precipitation 0.00 in - - ()
Sea Level Pressure  
Sea Level Pressure 30.14 in    
Wind  
Wind Speed 6 mph (ENE)    
Max Wind Speed 12 mph    
Max Gust Speed 16 mph    
Visibility 10 miles    
Events      
Averages and records for this station are not official NWS values.
T = Trace of Precipitation, MM = Missing Value Source: NWS Daily Summary

Daily Weather History Graph

Daily Weather History Graph

Search for Another Location

Airport or City:

Astronomy

Oct. 18, 2012 Rise Set
Actual Time 7:11 AM PDT 5:52 PM PDT
Civil Twilight 6:40 AM PDT 6:23 PM PDT
Nautical Twilight 6:04 AM PDT 6:59 PM PDT
Astronomical Twilight 5:28 AM PDT 7:35 PM PDT
Moon 11:14 AM PDT (10/18) 8:15 PM PDT (10/18)
Length of Visible Light 11h 43m
Length of Day
10h 40m
Waxing Crescent, 15% of the Moon is Illuminated
Oct 18
Waxing Crescent
Oct 21
First Quarter
Oct 29
Full
Nov 6
Last Quarter
Nov 13
New

Hourly Weather History & Observations

Time (PDT) Temp. Windchill Dew Point Humidity Pressure Visibility Wind Dir Wind Speed Gust Speed Precip Events Conditions
12:15 AM 35.6 °F 30.7 °F 30.2 °F 81% 30.27 in 10.0 mi ENE 5.8 mph - N/A   Partly Cloudy
12:35 AM 35.6 °F 31.7 °F 32.0 °F 87% 30.27 in 10.0 mi East 4.6 mph - N/A   Clear
12:55 AM 33.8 °F 30.8 °F 30.2 °F 87% 30.28 in 10.0 mi East 3.5 mph - N/A   Clear
1:15 AM 33.8 °F 28.6 °F 30.2 °F 87% 30.28 in 10.0 mi East 5.8 mph - N/A   Partly Cloudy
1:35 AM 33.8 °F 28.6 °F 28.4 °F 81% 30.28 in 10.0 mi ENE 5.8 mph - N/A   Partly Cloudy
1:55 AM 33.8 °F 30.8 °F 28.4 °F 81% 30.27 in 10.0 mi East 3.5 mph - N/A   Scattered Clouds
2:15 AM 33.8 °F 27.7 °F 32.0 °F 93% 30.27 in 10.0 mi ENE 6.9 mph - N/A   Scattered Clouds
2:35 AM 32.0 °F 28.7 °F 28.4 °F 87% 30.28 in 10.0 mi ENE 3.5 mph - N/A   Clear
2:55 AM 32.0 °F 25.6 °F 30.2 °F 93% 30.28 in 10.0 mi NE 6.9 mph - N/A   Clear
3:15 AM 30.2 °F 26.7 °F 28.4 °F 93% 30.29 in 10.0 mi NE 3.5 mph - N/A   Clear
3:35 AM 32.0 °F 25.6 °F 28.4 °F 87% 30.28 in 10.0 mi NE 6.9 mph - N/A   Clear
3:55 AM 32.0 °F 25.6 °F 28.4 °F 87% 30.27 in 10.0 mi ENE 6.9 mph - N/A   Scattered Clouds
4:35 AM 33.8 °F 29.6 °F 28.4 °F 81% 30.27 in 10.0 mi NNE 4.6 mph - N/A   Mostly Cloudy
4:55 AM 35.6 °F 31.7 °F 32.0 °F 87% 30.27 in 10.0 mi NE 4.6 mph - N/A   Overcast
5:15 AM 33.8 °F 29.6 °F 30.2 °F 87% 30.27 in 10.0 mi ENE 4.6 mph - N/A   Overcast
5:35 AM 35.6 °F 32.8 °F 32.0 °F 87% 30.27 in 10.0 mi ENE 3.5 mph - N/A   Overcast
5:55 AM 35.6 °F 30.7 °F 32.0 °F 87% 30.27 in 10.0 mi NE 5.8 mph - N/A   Overcast
6:15 AM 37.4 °F 34.9 °F 33.8 °F 87% 30.27 in 10.0 mi NE 3.5 mph - N/A   Overcast
6:35 AM 35.6 °F 32.8 °F 32.0 °F 87% 30.26 in 10.0 mi ENE 3.5 mph - N/A   Mostly Cloudy
6:55 AM 33.8 °F 30.8 °F 30.2 °F 87% 30.27 in 10.0 mi NE 3.5 mph - N/A   Scattered Clouds
7:15 AM 33.8 °F 29.6 °F 28.4 °F 81% 30.27 in 10.0 mi NNE 4.6 mph - N/A   Partly Cloudy
7:35 AM 33.8 °F 27.7 °F 32.0 °F 93% 30.27 in 10.0 mi NNE 6.9 mph - N/A   Clear
7:55 AM 35.6 °F 31.7 °F 32.0 °F 87% 30.27 in 10.0 mi NNE 4.6 mph - N/A   Clear
8:15 AM 37.4 °F 32.8 °F 35.6 °F 93% 30.27 in 10.0 mi NE 5.8 mph - N/A   Clear
8:35 AM 39.2 °F 35.0 °F 33.8 °F 81% 30.28 in 10.0 mi NNE 5.8 mph - N/A   Clear
8:55 AM 41.0 °F 37.1 °F 33.8 °F 76% 30.27 in 10.0 mi NE 5.8 mph - N/A   Clear
9:15 AM 41.0 °F 38.0 °F 33.8 °F 76% 30.27 in 10.0 mi NE 4.6 mph - N/A   Clear
9:35 AM 41.0 °F 38.0 °F 33.8 °F 76% 30.27 in 10.0 mi NE 4.6 mph - N/A   Clear
9:55 AM 42.8 °F 41.1 °F 35.6 °F 76% 30.26 in 10.0 mi ENE 3.5 mph - N/A   Clear
10:15 AM 44.6 °F - 33.8 °F 66% 30.26 in 10.0 mi Calm Calm - N/A   Clear
10:35 AM 46.4 °F 45.2 °F 33.8 °F 62% 30.26 in 10.0 mi NE 3.5 mph - N/A   Clear
10:55 AM 46.4 °F 45.2 °F 33.8 °F 62% 30.25 in 10.0 mi ENE 3.5 mph - N/A   Clear
11:15 AM 48.2 °F - 33.8 °F 58% 30.24 in 10.0 mi Calm Calm - N/A   Clear
11:35 AM 50.0 °F - 33.8 °F 54% 30.23 in 10.0 mi Calm Calm - N/A   Clear
11:55 AM 51.8 °F - 33.8 °F 50% 30.23 in 10.0 mi Calm Calm - N/A   Clear
12:15 PM 53.6 °F - 32.0 °F 44% 30.22 in 10.0 mi South 5.8 mph - N/A   Clear
12:35 PM 53.6 °F - 32.0 °F 44% 30.20 in 10.0 mi South 9.2 mph - N/A   Clear
12:55 PM 55.4 °F - 30.2 °F 38% 30.19 in 10.0 mi South 9.2 mph - N/A   Clear
1:15 PM 57.2 °F - 30.2 °F 36% 30.17 in 10.0 mi South 9.2 mph - N/A   Clear
1:35 PM 57.2 °F - 30.2 °F 36% 30.16 in 10.0 mi South 10.4 mph - N/A   Clear
1:55 PM 57.2 °F - 30.2 °F 36% 30.15 in 10.0 mi SSE 11.5 mph 16.1 mph N/A   Clear
2:15 PM 57.2 °F - 8.6 °F 14% 30.14 in 10.0 mi South 9.2 mph - N/A   Clear
2:35 PM 59.0 °F - 26.6 °F 29% 30.12 in 10.0 mi South 8.1 mph - N/A   Clear
2:55 PM 60.8 °F - 30.2 °F 31% 30.11 in 10.0 mi South 10.4 mph - N/A   Clear
3:15 PM 60.8 °F - 28.4 °F 29% 30.10 in 10.0 mi South 8.1 mph - N/A   Clear
3:35 PM 60.8 °F - 28.4 °F 29% 30.09 in 10.0 mi SSE 5.8 mph - N/A   Clear
3:55 PM 60.8 °F - 26.6 °F 27% 30.08 in 10.0 mi SSE 6.9 mph - N/A   Clear
4:15 PM 60.8 °F - 28.4 °F 29% 30.07 in 10.0 mi SSE 4.6 mph - N/A   Clear
4:35 PM 59.0 °F - 8.6 °F 14% 30.06 in 10.0 mi SSE 5.8 mph - N/A   Clear
4:55 PM 59.0 °F - 3.2 °F 11% 30.05 in 10.0 mi Calm Calm - N/A   Clear
5:15 PM 59.0 °F - 5.0 °F 12% 30.03 in 10.0 mi Calm Calm - N/A   Clear
5:35 PM 57.2 °F - 42.8 °F 59% 30.02 in 10.0 mi ENE 4.6 mph - N/A   Clear
5:55 PM 53.6 °F - 15.8 °F 22% 30.01 in 10.0 mi NNE 8.1 mph - N/A   Clear
6:15 PM 51.8 °F - 35.6 °F 54% 30.00 in 10.0 mi NNE 8.1 mph - N/A   Clear
6:35 PM 51.8 °F - 35.6 °F 54% 30.00 in 10.0 mi NNE 9.2 mph - N/A   Clear
6:55 PM 50.0 °F - 35.6 °F 58% 29.99 in 10.0 mi NE 10.4 mph - N/A   Clear
7:15 PM 50.0 °F - 33.8 °F 54% 29.98 in 10.0 mi NE 10.4 mph - N/A   Clear
7:35 PM 48.2 °F - 33.8 °F 58% 29.97 in 10.0 mi NE 8.1 mph - N/A   Clear
7:55 PM 46.4 °F 44.3 °F 33.8 °F 62% 29.96 in 10.0 mi ENE 4.6 mph - N/A   Clear
8:15 PM 44.6 °F 40.7 °F 35.6 °F 71% 29.95 in 10.0 mi NE 6.9 mph - N/A   Clear
8:35 PM 44.6 °F 40.7 °F 35.6 °F 71% 29.93 in 10.0 mi ENE 6.9 mph - N/A   Clear
8:55 PM 44.6 °F 40.2 °F 35.6 °F 71% 29.92 in 10.0 mi ENE 8.1 mph - N/A   Clear
9:15 PM 46.4 °F 42.9 °F 35.6 °F 66% 29.92 in 10.0 mi ENE 6.9 mph - N/A   Clear
9:35 PM 44.6 °F 40.2 °F 33.8 °F 66% 29.91 in 10.0 mi ENE 8.1 mph - N/A   Clear
9:55 PM 44.6 °F 39.7 °F 35.6 °F 71% 29.90 in 10.0 mi East 9.2 mph - N/A   Clear
10:15 PM 44.6 °F 40.7 °F 35.6 °F 71% 29.90 in 10.0 mi ENE 6.9 mph - N/A   Clear
10:35 PM 44.6 °F 40.7 °F 35.6 °F 71% 29.89 in 10.0 mi ENE 6.9 mph - N/A   Clear
10:55 PM 44.6 °F 40.7 °F 35.6 °F 71% 29.89 in 10.0 mi East 6.9 mph - N/A   Clear
11:15 PM 46.4 °F 42.4 °F 33.8 °F 62% 29.89 in 10.0 mi ENE 8.1 mph - N/A   Clear
11:35 PM 46.4 °F 43.5 °F 35.6 °F 66% 29.88 in 10.0 mi ENE 5.8 mph - N/A   Clear
11:55 PM 46.4 °F 43.5 °F 33.8 °F 62% 29.88 in 10.0 mi ENE 5.8 mph - N/A   Clear